FW7718 Weather Reports


Display with metric or nautical units.
time (UTC)temp
F
wind
direction
speed
MPH
gust
MPH
rain 1hr
in
rain 24hr
in
rain mn
in
humidity
%
barometer
mb
20260510185319 65 106 1.0 2.0 0.00 1.53 1.53 88 1017.9
20260510184815 65 91 3.0 3.0 0.00 1.53 1.53 88 1017.8
20260510184312 65 115 4.0 6.0 0.00 1.53 1.53 88 1017.8
20260510183807 65 121 4.0 5.0 0.00 1.53 1.53 88 1017.9
20260510183302 65 107 7.0 9.0 0.00 1.53 1.53 88 1017.6
20260510182759 64 96 5.0 7.0 0.00 1.53 1.53 89 1017.6
20260510182255 64 92 8.0 9.0 0.00 1.53 1.53 89 1017.2
20260510181752 64 89 11.0 14.0 0.00 1.53 1.53 91 1017.0
20260510181249 64 80 10.0 14.0 0.00 1.53 1.53 92 1017.1
20260510180745 63 94 8.0 13.0 0.00 1.53 1.53 93 1016.9
20260510180242 63 55 9.0 10.0 0.07 1.53 1.53 95 1017.1
20260510175739 63 85 12.0 16.0 0.07 1.53 1.53 96 1017.8
20260510175234 62 68 15.0 17.0 0.00 1.52 1.52 96 1018.2
20260510174732 62 86 7.0 7.0 0.05 1.52 1.52 96 1018.8
20260510174229 62 58 5.0 6.0 0.24 1.52 1.52 96 1019.5
20260510173725 62 16 7.0 11.0 0.35 1.51 1.51 96 1019.5
20260510173221 62 16 5.0 7.0 0.42 1.49 1.49 95 1019.5
20260510172716 62 21 8.0 11.0 0.71 1.46 1.46 95 1019.5
20260510172213 63 347 9.0 11.0 0.83 1.41 1.41 95 1019.8
20260510171709 63 8 10.0 13.0 1.44 1.32 1.32 94 1019.9
20260510171207 63 4 8.0 9.0 2.22 1.25 1.25 93 1019.2
20260510170703 63 9 10.0 14.0 2.83 1.08 1.08 92 1019.6
20260510170159 66 359 14.0 17.0 1.70 0.84 0.84 88 1019.2
20260510165656 68 355 13.0 17.0 0.31 0.61 0.61 83 1018.5
20260510165152 69 296 11.0 13.0 0.00 0.56 0.56 78 1018.3
20260510164650 70 72 9.0 11.0 0.00 0.56 0.56 76 1018.0
20260510164147 71 35 6.0 8.0 0.00 0.56 0.56 75 1017.6
20260510163641 72 339 5.0 7.0 0.00 0.56 0.56 76 1017.7
20260510163137 72 27 6.0 8.0 0.00 0.56 0.56 77 1017.5
20260510162632 73 46 6.0 9.0 0.00 0.56 0.56 76 1017.5
20260510162129 76 349 13.0 16.0 0.00 0.56 0.56 70 1017.2
20260510161625 77 27 7.0 8.0 0.00 0.56 0.56 65 1017.2
20260510161122 78 130 2.0 2.0 0.00 0.56 0.56 61 1016.8
20260510160619 78 127 1.0 2.0 0.00 0.56 0.56 65 1016.6
20260510160118 79 133 3.0 6.0 0.00 0.56 0.56 63 1016.5
20260510155615 79 182 7.0 8.0 0.00 0.56 0.56 60 1016.0
20260510155111 79 195 8.0 9.0 0.00 0.56 0.56 60 1015.7
20260510154607 78 97 5.0 6.0 0.00 0.56 0.56 66 1015.4
20260510154102 78 169 4.0 6.0 0.00 0.56 0.56 67 1015.3
20260510153557 77 152 6.0 9.0 0.00 0.56 0.56 71 1015.3
20260510153054 76 133 5.0 7.0 0.00 0.56 0.56 71 1015.3
20260510152551 76 166 8.0 11.0 0.00 0.56 0.56 70 1015.2
20260510152048 75 184 6.0 8.0 0.00 0.56 0.56 73 1015.1
20260510151544 75 153 8.0 10.0 0.00 0.56 0.56 71 1014.7
20260510151042 75 142 9.0 11.0 0.00 0.56 0.56 71 1014.9
20260510150537 74 140 9.0 11.0 0.00 0.56 0.56 74 1014.8
20260510150033 74 187 5.0 7.0 0.00 0.56 0.56 77 1015.2
20260510145530 73 183 5.0 6.0 0.00 0.56 0.56 74 1015.3
20260510145026 73 172 5.0 6.0 0.00 0.56 0.56 77 1015.3
20260510144523 72 189 8.0 9.0 0.00 0.56 0.56 78 1015.0
20260510144019 72 199 9.0 10.0 0.00 0.56 0.56 80 1014.8
20260510143514 71 201 7.0 8.0 0.00 0.56 0.56 79 1015.1
20260510143011 71 191 7.0 8.0 0.00 0.56 0.56 78 1015.3
20260510142508 71 202 6.0 7.0 0.00 0.56 0.56 80 1015.4
20260510142004 71 202 4.0 5.0 0.00 0.56 0.56 79 1015.6
20260510141501 70 172 5.0 6.0 0.00 0.56 0.56 80 1015.6
20260510140959 70 222 6.0 7.0 0.00 0.56 0.56 81 1015.8
20260510140455 70 175 3.0 3.0 0.00 0.56 0.56 81 1015.7
20260510135954 70 179 4.0 5.0 0.00 0.56 0.56 83 1015.7
20260510135450 70 201 5.0 7.0 0.00 0.56 0.56 82 1015.6
20260510134947 69 189 4.0 5.0 0.00 0.56 0.56 84 1015.5
20260510134444 68 165 4.0 5.0 0.00 0.56 0.56 86 1015.4
20260510133941 68 140 4.0 5.0 0.00 0.56 0.56 85 1015.3
20260510133436 68 166 5.0 7.0 0.00 0.56 0.56 85 1015.5
20260510132932 68 172 6.0 7.0 0.00 0.56 0.56 87 1015.4
20260510132430 67 156 5.0 7.0 0.00 0.56 0.56 89 1015.5
20260510131927 66 122 4.0 6.0 0.00 0.56 0.56 92 1015.6
20260510131424 66 169 5.0 6.0 0.00 0.56 0.56 91 1015.5
20260510130920 65 137 4.0 6.0 0.00 0.56 0.56 92 1015.4
20260510130418 65 136 5.0 6.0 0.00 0.56 0.56 92 1015.6
20260510125915 65 134 2.0 3.0 0.00 0.56 0.56 93 1015.8
20260510125410 65 91 1.0 2.0 0.00 0.56 0.56 94 1015.9
20260510124908 65 115 3.0 5.0 0.00 0.56 0.56 94 1015.9
20260510124404 64 111 4.0 6.0 0.00 0.56 0.56 95 1015.7
20260510123900 64 88 6.0 7.0 0.00 0.56 0.56 96 1015.4
20260510123356 64 107 7.0 8.0 0.00 0.56 0.56 96 1015.3
20260510122853 64 100 5.0 6.0 0.00 0.56 0.56 96 1015.7
20260510122348 64 102 2.0 2.0 0.00 0.56 0.56 96 1015.9
20260510121845 63 82 0.0 0.0 0.00 0.56 0.56 96 1016.0
20260510121343 63 81 0.0 0.0 0.00 0.56 0.56 96 1015.8
20260510120839 63 86 1.0 1.0 0.00 0.56 0.56 96 1015.5
20260510120337 63 90 1.0 1.0 0.00 0.56 0.56 96 1015.7
20260510115832 63 88 1.0 1.0 0.00 0.56 0.56 96 1015.7
20260510115329 63 107 1.0 2.0 0.00 0.56 0.56 96 1015.5
20260510114825 63 75 1.0 1.0 0.00 0.56 0.56 96 1015.8
20260510114323 63 82 2.0 2.0 0.00 0.56 0.56 96 1015.8
20260510113817 63 66 2.0 2.0 0.00 0.56 0.56 96 1015.8
20260510113314 63 47 2.0 3.0 0.00 0.56 0.56 96 1015.7
20260510112811 63 70 1.0 1.0 0.00 0.56 0.56 96 1015.4
20260510112308 63 82 2.0 2.0 0.00 0.56 0.56 96 1015.4
20260510111804 63 86 2.0 2.0 0.00 0.56 0.56 96 1015.3
20260510111301 63 85 4.0 5.0 0.00 0.56 0.56 96 1015.4
20260510110800 63 54 5.0 6.0 0.00 0.56 0.56 96 1015.0
20260510110258 63 47 3.0 6.0 0.00 0.56 0.56 96 1015.4
20260510105758 63 45 2.0 2.0 0.00 0.56 0.56 96 1015.3
20260510105253 63 107 0.0 0.0 0.00 0.56 0.56 96 1015.3
20260510104750 63 104 2.0 3.0 0.00 0.56 0.56 96 1015.1
20260510104248 63 134 1.0 2.0 0.00 0.56 0.56 96 1015.1
20260510103744 63 170 3.0 3.0 0.00 0.56 0.56 97 1015.2
20260510103241 63 154 7.0 8.0 0.00 0.56 0.56 97 1014.6
20260510102741 63 108 6.0 7.0 0.00 0.56 0.56 97 1014.5
20260510102236 64 99 6.0 8.0 0.00 0.56 0.56 97 1014.5
20260510101734 64 106 5.0 6.0 0.00 0.56 0.56 97 1014.6
20260510101233 64 128 7.0 9.0 0.00 0.56 0.56 97 1014.4
20260510100728 64 118 8.0 10.0 0.00 0.56 0.56 97 1014.6
20260510100226 63 91 7.0 10.0 0.00 0.56 0.56 97 1014.7
20260510095721 64 102 6.0 7.0 0.00 0.56 0.56 96 1014.5
20260510095217 64 106 11.0 14.0 0.00 0.56 0.56 96 1014.3
20260510094716 64 92 8.0 11.0 0.05 0.56 0.56 96 1015.5
20260510094212 64 73 8.0 11.0 0.12 0.56 0.56 96 1016.2
20260510093708 64 48 5.0 6.0 0.19 0.55 0.55 96 1016.7
20260510093205 64 50 3.0 5.0 0.19 0.53 0.53 95 1016.9
20260510092701 64 8 5.0 8.0 0.71 0.52 0.52 95 1016.8
20260510092157 64 36 7.0 9.0 1.61 0.50 0.50 94 1016.7
20260510091653 64 32 10.0 14.0 1.96 0.41 0.41 92 1017.1
20260510091149 66 33 7.0 9.0 1.39 0.23 0.23 89 1017.4
20260510090646 67 10 8.0 9.0 0.35 0.06 0.06 86 1017.6
20260510090143 68 333 8.0 9.0 0.00 0.00 0.00 83 1016.6
20260510085638 68 47 6.0 7.0 0.00 0.00 0.00 82 1016.0
20260510085133 69 10 7.0 7.0 0.00 0.00 0.00 82 1015.6
20260510084630 69 33 5.0 7.0 0.00 0.00 0.00 82 1015.0
20260510084126 69 56 8.0 8.0 0.00 0.00 0.00 82 1014.6
20260510083623 69 57 11.0 14.0 0.00 0.00 0.00 83 1014.6
20260510083119 69 43 6.0 7.0 0.00 0.00 0.00 84 1014.2
20260510082616 69 54 4.0 5.0 0.00 0.00 0.00 84 1014.2
20260510082112 69 49 5.0 7.0 0.00 0.00 0.00 85 1013.9
20260510081606 69 48 8.0 10.0 0.00 0.00 0.00 85 1013.9
20260510081102 69 25 10.0 13.0 0.00 0.00 0.00 87 1013.9
20260510080601 70 50 3.0 6.0 0.00 0.00 0.00 89 1014.2
20260510080058 71 29 4.0 6.0 0.00 0.00 0.00 91 1013.8
20260510075555 71 41 5.0 8.0 0.00 0.00 0.00 94 1013.3
20260510075052 72 47 10.0 11.0 0.00 0.00 0.00 95 1013.1
20260510074550 72 65 8.0 10.0 0.00 0.00 0.00 95 1013.1
20260510074045 72 33 4.0 6.0 0.00 0.00 0.00 95 1012.8
20260510073541 72 49 6.0 7.0 0.00 0.00 0.00 94 1012.7
20260510073039 72 67 5.0 6.0 0.00 0.00 0.00 94 1012.7
20260510072535 72 64 5.0 6.0 0.00 0.00 0.00 94 1012.9
20260510072031 72 76 3.0 5.0 0.00 0.00 0.00 94 1012.6
20260510071527 73 78 3.0 3.0 0.00 0.00 0.00 94 1013.0
20260510071025 73 50 0.0 0.0 0.00 0.00 0.00 94 1013.5
20260510070522 73 48 1.0 2.0 0.00 0.00 0.00 94 1013.4
20260510070019 73 51 1.0 1.0 0.00 0.00 0.00 94 1013.8
20260510065515 73 48 1.0 2.0 0.00 0.00 0.00 93 1013.5
20260510065011 73 45 3.0 5.0 0.00 0.00 0.00 93 1013.9
20260510064509 73 12 3.0 3.0 0.00 0.00 0.00 93 1013.7
20260510064005 73 22 3.0 3.0 0.00 0.00 0.00 93 1013.7
20260510063501 73 3 2.0 3.0 0.00 0.00 0.00 93 1013.9
20260510062959 73 33 3.0 5.0 0.00 0.00 0.00 93 1013.9
20260510062454 73 17 2.0 3.0 0.00 0.00 0.00 92 1013.5
20260510061949 73 0 3.0 5.0 0.00 0.00 0.00 92 1013.5
20260510061447 73 47 2.0 2.0 0.00 0.00 0.00 92 1013.6
20260510060943 73 41 3.0 5.0 0.00 0.00 0.00 92 1013.5
20260510060440 73 51 3.0 5.0 0.00 0.00 0.00 91 1013.2
20260510055936 73 70 4.0 5.0 0.00 0.00 0.00 91 1012.7
20260510055432 73 98 1.0 2.0 0.00 0.00 0.00 91 1012.7
20260510054930 73 101 4.0 5.0 0.00 0.00 0.00 91 1012.1
20260510054425 73 107 4.0 5.0 0.00 0.00 0.00 91 1011.7
20260510053921 73 117 7.0 7.0 0.00 0.00 0.00 91 1012.0
20260510053416 73 126 6.0 8.0 0.00 0.00 0.00 91 1012.0
20260510052913 73 108 3.0 6.0 0.00 0.00 0.00 91 1012.1
20260510052409 73 109 5.0 6.0 0.00 0.00 0.00 91 1011.9
20260510051905 73 114 5.0 6.0 0.00 0.00 0.00 91 1011.7
20260510051402 73 113 4.0 5.0 0.00 0.00 0.00 90 1011.6
20260510050858 73 109 7.0 9.0 0.00 0.00 0.00 90 1011.6
20260510050355 74 115 7.0 8.0 0.00 0.00 0.00 90 1011.8
20260510045852 74 109 5.0 7.0 0.00 0.00 0.00 89 1011.6
20260510045349 74 115 6.0 8.0 0.00 0.00 0.00 89 1011.5
20260510044846 74 110 6.0 9.0 0.00 0.00 0.00 89 1011.3
20260510044343 74 127 7.0 9.0 0.00 0.00 0.00 89 1011.2
20260510043839 74 123 6.0 7.0 0.00 0.00 0.00 89 1011.4
20260510043335 74 106 7.0 8.0 0.00 0.00 0.00 89 1011.3
20260510042833 74 107 5.0 7.0 0.00 0.00 0.00 88 1011.1
20260510042329 74 136 5.0 7.0 0.00 0.00 0.00 88 1011.1
20260510041825 74 132 5.0 6.0 0.00 0.00 0.00 88 1011.2
20260510041323 74 117 4.0 5.0 0.00 0.00 0.00 88 1011.2
20260510040820 74 119 5.0 7.0 0.00 0.00 0.00 88 1011.2
20260510040316 73 136 4.0 5.0 0.00 0.00 0.00 87 1011.3
20260510035812 74 120 4.0 6.0 0.00 0.00 0.00 87 1011.1
20260510035308 74 106 4.0 5.0 0.00 0.00 0.00 87 1011.3
20260510034804 74 142 3.0 5.0 0.00 0.00 0.00 86 1011.1
20260510034302 74 130 6.0 7.0 0.00 0.00 0.00 86 1011.1
20260510033758 74 109 5.0 7.0 0.00 0.00 0.00 86 1011.1
20260510033255 73 125 6.0 7.0 0.00 0.00 0.00 86 1011.2
20260510032751 73 117 4.0 5.0 0.00 0.00 0.00 85 1011.1
20260510032248 73 100 4.0 5.0 0.00 0.00 0.00 85 1011.1
20260510031743 72 101 2.0 5.0 0.00 0.00 0.00 84 1011.1
20260510031239 72 104 3.0 3.0 0.00 0.00 0.00 84 1011.3
20260510030738 72 103 2.0 2.0 0.00 0.00 0.00 85 1011.2
20260510030231 72 101 3.0 3.0 0.00 0.00 0.00 86 1011.2
20260510025728 72 72 1.0 1.0 0.00 0.00 0.00 84 1011.2
20260510025226 72 71 1.0 2.0 0.00 0.00 0.00 84 1011.2
20260510024722 72 71 1.0 1.0 0.00 0.00 0.00 84 1011.6
20260510024219 72 71 0.0 1.0 0.00 0.00 0.00 83 1011.3
20260510023714 72 71 0.0 1.0 0.00 0.00 0.00 82 1011.3
20260510023212 73 71 1.0 1.0 0.00 0.00 0.00 82 1011.2
20260510022707 73 71 0.0 1.0 0.00 0.00 0.00 81 1011.0
20260510022156 73 71 0.0 0.0 0.00 0.00 0.00 80 1011.2
20260510021652 74 71 0.0 0.0 0.00 0.00 0.00 79 1011.1
20260510021149 74 71 0.0 0.0 0.00 0.00 0.00 79 1011.0
20260510020644 75 71 0.0 0.0 0.00 0.00 0.00 77 1011.0
20260510020140 75 71 0.0 0.0 0.00 0.00 0.00 76 1010.7
20260510015636 75 71 1.0 1.0 0.00 0.00 0.00 75 1010.9
20260510015133 75 71 0.0 1.0 0.00 0.00 0.00 74 1010.9
20260510014627 76 71 1.0 1.0 0.00 0.00 0.00 74 1010.7
20260510014125 76 70 1.0 2.0 0.00 0.00 0.00 73 1010.5
20260510013625 76 74 1.0 1.0 0.00 0.00 0.00 73 1010.6
20260510013120 76 76 2.0 2.0 0.00 0.00 0.00 72 1010.6
20260510012615 77 82 1.0 2.0 0.00 0.00 0.00 71 1010.7
20260510012112 77 83 0.0 0.0 0.00 0.00 0.00 70 1010.4
20260510011611 78 83 0.0 0.0 0.00 0.00 0.00 69 1010.2
20260510011107 78 83 0.0 0.0 0.00 0.00 0.00 67 1010.1
20260510010604 79 83 0.0 0.0 0.00 0.00 0.00 67 1010.0
20260510005556 80 83 0.0 0.0 0.00 0.00 0.00 63 1010.0
20260510005054 80 83 0.0 0.0 0.00 0.00 0.00 63 1010.0
20260510004552 81 83 0.0 0.0 0.00 0.00 0.00 64 1009.8
20260510004049 81 83 1.0 1.0 0.00 0.00 0.00 63 1009.8
20260510003546 82 82 2.0 2.0 0.00 0.00 0.00 61 1009.8
20260510003042 82 85 2.0 2.0 0.00 0.00 0.00 60 1010.0
20260510002537 82 70 1.0 1.0 0.00 0.00 0.00 59 1009.8
20260510002034 82 63 2.0 2.0 0.00 0.00 0.00 59 1010.0
20260510001531 83 67 2.0 2.0 0.00 0.00 0.00 58 1010.0
20260510001030 83 61 2.0 2.0 0.00 0.00 0.00 57 1010.0
20260510000524 83 73 3.0 5.0 0.00 0.00 0.00 57 1010.2
20260510000022 84 58 3.0 3.0 0.00 0.00 0.00 57 1010.1
20260509235518 84 75 1.0 2.0 0.00 0.00 0.00 57 1009.9
20260509235015 84 63 1.0 2.0 0.00 0.00 0.00 57 1009.9
20260509234511 84 57 3.0 3.0 0.00 0.00 0.00 55 1010.0
20260509234009 84 53 3.0 3.0 0.00 0.00 0.00 57 1010.1
20260509233506 84 48 3.0 3.0 0.00 0.00 0.00 55 1010.1
20260509233002 84 75 3.0 3.0 0.00 0.00 0.00 56 1009.7
20260509232500 84 81 4.0 5.0 0.00 0.00 0.00 56 1010.0
20260509231956 84 57 3.0 3.0 0.00 0.00 0.00 54 1010.0
20260509231453 85 27 3.0 3.0 0.00 0.00 0.00 56 1009.9
20260509230951 85 44 2.0 3.0 0.00 0.00 0.00 56 1010.0
20260509230447 84 33 3.0 5.0 0.00 0.00 0.00 55 1010.0
20260509225943 84 60 3.0 3.0 0.00 0.00 0.00 56 1010.0
20260509225440 84 49 3.0 3.0 0.00 0.00 0.00 58 1009.9
20260509224936 85 47 6.0 8.0 0.00 0.00 0.00 55 1009.8
20260509224431 85 77 2.0 2.0 0.00 0.00 0.00 56 1009.8
20260509223929 85 59 5.0 6.0 0.00 0.00 0.00 54 1009.5
20260509223425 85 69 6.0 7.0 0.00 0.00 0.00 56 1009.9
20260509222923 85 61 2.0 2.0 0.00 0.00 0.00 56 1009.9
20260509222417 85 33 4.0 5.0 0.00 0.00 0.00 56 1009.8
20260509221913 85 29 5.0 6.0 0.00 0.00 0.00 59 1009.8
20260509221411 86 96 5.0 6.0 0.00 0.00 0.00 56 1009.7
20260509220907 86 86 6.0 7.0 0.00 0.00 0.00 56 1009.8
20260509220402 86 357 2.0 2.0 0.00 0.00 0.00 55 1009.8
20260509215858 86 91 2.0 2.0 0.00 0.00 0.00 53 1009.9
20260509215355 86 97 3.0 3.0 0.00 0.00 0.00 57 1009.8
20260509214852 85 64 2.0 2.0 0.00 0.00 0.00 59 1009.9
20260509214349 86 336 5.0 6.0 0.00 0.00 0.00 58 1009.9
20260509213846 85 37 2.0 3.0 0.00 0.00 0.00 61 1010.1
20260509213341 85 61 1.0 1.0 0.00 0.00 0.00 58 1010.0
20260509212839 85 45 6.0 9.0 0.00 0.00 0.00 59 1010.1
20260509212337 85 74 3.0 5.0 0.00 0.00 0.00 59 1010.2
20260509211832 85 84 2.0 2.0 0.00 0.00 0.00 57 1010.4
20260509211328 85 87 6.0 8.0 0.00 0.00 0.00 56 1010.4
20260509210825 85 39 2.0 2.0 0.00 0.00 0.00 57 1010.5
20260509210323 85 5 4.0 6.0 0.00 0.00 0.00 58 1010.5
20260509205822 86 49 7.0 8.0 0.00 0.00 0.00 60 1010.4
20260509205317 85 156 1.0 2.0 0.00 0.00 0.00 59 1010.5
20260509204814 85 89 1.0 2.0 0.00 0.00 0.00 58 1010.7
20260509204310 85 45 1.0 1.0 0.00 0.00 0.00 62 1011.0
20260509203806 84 2 2.0 2.0 0.00 0.00 0.00 61 1011.1
20260509203304 84 63 2.0 2.0 0.00 0.00 0.00 62 1011.2
20260509202800 85 48 1.0 2.0 0.00 0.00 0.00 59 1011.1
20260509202256 85 103 0.0 1.0 0.00 0.00 0.00 60 1011.3
20260509201750 84 49 2.0 2.0 0.00 0.00 0.00 62 1011.0
20260509201247 84 340 3.0 3.0 0.00 0.00 0.00 62 1011.1
20260509200743 84 46 4.0 5.0 0.00 0.00 0.00 63 1011.1
20260509200238 84 48 6.0 8.0 0.00 0.00 0.00 63 1011.2
20260509195735 83 346 3.0 3.0 0.00 0.00 0.00 66 1011.2
20260509195230 83 9 2.0 3.0 0.00 0.00 0.00 66 1011.3
20260509194730 84 7 3.0 5.0 0.00 0.00 0.00 64 1011.3
20260509194226 83 35 4.0 6.0 0.00 0.00 0.00 64 1011.4
20260509193723 83 50 4.0 6.0 0.00 0.00 0.00 64 1011.6
20260509193218 82 52 3.0 5.0 0.00 0.00 0.00 67 1011.5
20260509192714 82 74 1.0 1.0 0.00 0.00 0.00 66 1011.4
20260509192209 84 76 5.0 6.0 0.00 0.00 0.00 64 1011.5
20260509191705 82 357 6.0 7.0 0.00 0.00 0.00 66 1011.7
20260509191202 83 352 4.0 5.0 0.00 0.00 0.00 65 1011.7
20260509190658 84 34 4.0 5.0 0.00 0.00 0.00 65 1011.6
20260509190155 83 52 2.0 2.0 0.00 0.00 0.00 64 1011.8
20260509185653 82 72 5.0 6.0 0.00 0.00 0.00 66 1011.6